Language: 


Des rapports , des résumés tant et plus, au choix de chacun....


Données Historiques de Météogheer
Journalier Rapport pour Décembre 18, 2017 Unitée:  Métrique    Impériale   Les deux
Suivant Jour »
Journalier Hebdomadaire Mensuel Annuel Sur mesure
  Max: Min: Moyenne:
Température: 9.7 °C 2.6 °C 7 °C
Point de rosée: 9.0 °C 3.0 °C 6.5 °C
Humidité: 98% 80% 94%
Vent: 20.9km/h 0.0km/h 6.6km/h
Rafales: 23.3km/h - -
Vent- - WNW
Pression: 1031.0 hPa 1016.1 hPa -
Pluie: 1.8 mm    
Historical Graphs
 
 
Données tabulaires pour Décembre 18, 2017
Heure Température Point de rosée Pression Vent Vent Rafales Humidité Pluie Taux (Horaire) Conditions
00:00 5.9 °C 6.0 °C 1018.2 hPa WSW 10.5 km/h 11.9 km/h 98% 1.3 mm
00:02 6.0 °C 6.0 °C 1018.2 hPa WSW 9.3 km/h 14.0 km/h 98% 1.3 mm
00:07 6.1 °C 6.0 °C 1018.2 hPa WSW 9.0 km/h 14.0 km/h 98% 1.5 mm
00:12 6.2 °C 6.0 °C 1018.2 hPa West 6.9 km/h 11.9 km/h 98% 1.5 mm
00:16 6.3 °C 6.0 °C 1018.2 hPa WSW 7.9 km/h 11.9 km/h 98% 1.5 mm
00:21 6.5 °C 7.0 °C 1018.2 hPa WSW 12.6 km/h 13.7 km/h 98% 1.5 mm
00:23 6.5 °C 7.0 °C 1018.2 hPa WSW 8.7 km/h 13.7 km/h 98% 1.5 mm
00:28 6.7 °C 7.0 °C 1016.8 hPa West 8.7 km/h 14.0 km/h 98% 1.5 mm
00:30 6.8 °C 7.0 °C 1016.8 hPa WNW 8.7 km/h 14.0 km/h 98% 1.5 mm
00:35 7.0 °C 7.0 °C 1016.8 hPa WSW 6.9 km/h 14.0 km/h 98% 1.5 mm
00:40 7.0 °C 7.0 °C 1018.2 hPa WSW 9.0 km/h 12.6 km/h 98% 1.5 mm
00:45 7.0 °C 7.0 °C 1018.2 hPa WSW 7.9 km/h 11.6 km/h 98% 1.5 mm
00:48 7.0 °C 7.0 °C 1018.2 hPa WSW 8.7 km/h 11.6 km/h 98% 1.5 mm
00:53 7.0 °C 7.0 °C 1018.2 hPa WSW 10.1 km/h 13.0 km/h 98% 1.3 mm
00:55 6.9 °C 7.0 °C 1018.2 hPa SW 12.2 km/h 13.0 km/h 98% 1.3 mm
01:00 7.0 °C 7.0 °C 1016.1 hPa WSW 11.9 km/h 13.0 km/h 98% 1.3 mm
01:01 7.0 °C 7.0 °C 1016.1 hPa WSW 9.3 km/h 13.0 km/h 98% 1.3 mm
01:04 7.1 °C 7.0 °C 1016.1 hPa WSW 10.1 km/h 13.7 km/h 98% 1.0 mm
01:06 7.1 °C 7.0 °C 1016.1 hPa WSW 11.9 km/h 14.0 km/h 98% 1.0 mm
01:09 7.1 °C 7.0 °C 1016.1 hPa WSW 9.0 km/h 14.0 km/h 98% 1.0 mm
01:11 7.3 °C 7.0 °C 1016.8 hPa West 12.6 km/h 14.0 km/h 98% 1.0 mm
01:16 7.4 °C 7.0 °C 1016.8 hPa WSW 10.1 km/h 14.0 km/h 98% 0.5 mm
01:18 7.4 °C 7.0 °C 1016.8 hPa WNW 8.7 km/h 14.0 km/h 98% 0.5 mm
01:23 7.5 °C 8.0 °C 1016.8 hPa West 4.7 km/h 14.0 km/h 98% 0.5 mm
01:24 7.5 °C 8.0 °C 1016.8 hPa WNW 7.9 km/h 11.9 km/h 98% 0.5 mm
01:30 7.9 °C 8.0 °C 1016.8 hPa NW 5.0 km/h 13.0 km/h 98% 0.3 mm
01:31 7.9 °C 8.0 °C 1016.8 hPa NNW 17.7 km/h 17.7 km/h 98% 0.3 mm
01:36 8.4 °C 9.0 °C 1016.8 hPa WNW 20.1 km/h 21.2 km/h 98% 0.3 mm
01:41 8.6 °C 9.0 °C 1016.8 hPa WNW 5.8 km/h 21.2 km/h 98% 0.3 mm
01:43 8.6 °C 9.0 °C 1016.8 hPa West 12.2 km/h 21.2 km/h 98% 0.3 mm
01:48 8.8 °C 9.0 °C 1016.8 hPa West 7.6 km/h 15.4 km/h 98% 0.0 mm
01:50 8.8 °C 9.0 °C 1016.8 hPa WNW 1.8 km/h 15.4 km/h 98% 0.0 mm
01:55 8.8 °C 9.0 °C 1016.8 hPa NW 9.3 km/h 12.6 km/h 98% 0.0 mm
01:57 8.8 °C 9.0 °C 1016.1 hPa West 3.2 km/h 12.6 km/h 98% 0.0 mm
02:02 8.8 °C 9.0 °C 1016.1 hPa NNW 7.9 km/h 12.2 km/h 98% 0.0 mm
02:04 8.8 °C 9.0 °C 1016.1 hPa West 4.0 km/h 11.6 km/h 98% 0.0 mm
02:09 8.8 °C 9.0 °C 1016.1 hPa NNW 7.2 km/h 13.0 km/h 98% 0.0 mm
02:10 8.8 °C 9.0 °C 1016.1 hPa SW 6.1 km/h 13.0 km/h 98% 0.0 mm
02:11 8.8 °C 9.0 °C 1016.8 hPa NNE 10.1 km/h 13.0 km/h 98% 0.0 mm
02:16 8.9 °C 9.0 °C 1016.8 hPa North 7.9 km/h 13.0 km/h 98% 0.0 mm
02:20 8.9 °C 9.0 °C 1016.8 hPa NNW 13.7 km/h 13.7 km/h 98% 0.0 mm
02:25 8.9 °C 9.0 °C 1016.8 hPa West 6.9 km/h 13.7 km/h 98% 0.0 mm
02:27 8.9 °C 9.0 °C 1016.8 hPa NNW 4.7 km/h 13.7 km/h 98% 0.0 mm
02:29 8.9 °C 9.0 °C 1016.8 hPa WNW 7.9 km/h 14.0 km/h 98% 0.0 mm
02:34 8.9 °C 9.0 °C 1016.8 hPa NW 4.0 km/h 14.0 km/h 98% 0.0 mm
02:39 8.9 °C 9.0 °C 1016.8 hPa NNW 5.5 km/h 12.2 km/h 98% 0.0 mm
02:44 8.9 °C 9.0 °C 1018.2 hPa NW 10.5 km/h 16.9 km/h 98% 0.0 mm
02:45 8.9 °C 9.0 °C 1018.2 hPa NNW 15.4 km/h 16.9 km/h 98% 0.0 mm
02:46 8.9 °C 9.0 °C 1018.2 hPa NNW 8.7 km/h 16.9 km/h 98% 0.0 mm
02:50 8.8 °C 9.0 °C 1018.2 hPa WNW 2.6 km/h 16.9 km/h 98% 0.0 mm
02:55 8.8 °C 9.0 °C 1016.8 hPa WNW 8.7 km/h 15.1 km/h 98% 0.0 mm
02:56 8.8 °C 9.0 °C 1016.8 hPa WNW 10.1 km/h 15.1 km/h 98% 0.0 mm
03:01 8.8 °C 9.0 °C 1016.8 hPa WNW 8.7 km/h 16.6 km/h 98% 0.0 mm
03:06 8.7 °C 9.0 °C 1016.8 hPa NW 7.6 km/h 16.6 km/h 98% 0.0 mm
03:09 8.7 °C 9.0 °C 1016.8 hPa West 10.5 km/h 11.1 km/h 98% 0.0 mm
03:14 8.7 °C 9.0 °C 1018.2 hPa NW 7.9 km/h 12.6 km/h 98% 0.0 mm
03:15 8.7 °C 9.0 °C 1018.2 hPa NNW 4.7 km/h 12.6 km/h 98% 0.0 mm
03:19 8.6 °C 9.0 °C 1018.2 hPa NNW 8.7 km/h 12.6 km/h 98% 0.0 mm
03:20 8.6 °C 9.0 °C 1018.2 hPa WNW 6.9 km/h 12.6 km/h 98% 0.0 mm
03:25 8.6 °C 9.0 °C 1018.2 hPa North 5.8 km/h 13.7 km/h 98% 0.0 mm
03:27 8.5 °C 9.0 °C 1018.2 hPa West 6.4 km/h 13.7 km/h 98% 0.0 mm
03:32 8.5 °C 9.0 °C 1018.2 hPa North 9.3 km/h 13.7 km/h 98% 0.0 mm
03:35 8.5 °C 9.0 °C 1018.2 hPa NW 11.9 km/h 13.7 km/h 98% 0.0 mm
03:40 8.4 °C 9.0 °C 1018.2 hPa North 6.9 km/h 15.8 km/h 98% 0.0 mm
03:41 8.4 °C 9.0 °C 1018.2 hPa NNW 8.7 km/h 15.8 km/h 98% 0.0 mm
03:46 8.4 °C 9.0 °C 1018.2 hPa NNE 3.5 km/h 15.8 km/h 98% 0.0 mm
03:50 8.3 °C 9.0 °C 1018.2 hPa NNE 4.0 km/h 12.2 km/h 98% 0.0 mm
03:51 8.3 °C 9.0 °C 1018.2 hPa Calm   11.6 km/h 98% 0.0 mm
03:56 8.2 °C 8.0 °C 1018.2 hPa NNW 11.6 km/h 12.2 km/h 98% 0.0 mm
04:01 8.1 °C 8.0 °C 1018.2 hPa NNW 4.3 km/h 12.6 km/h 98% 0.0 mm
04:02 8.1 °C 8.0 °C 1018.2 hPa North 6.9 km/h 12.6 km/h 98% 0.0 mm
04:07 8.1 °C 8.0 °C 1018.2 hPa NNW 9.7 km/h 14.8 km/h 98% 0.0 mm
04:08 8.0 °C 8.0 °C 1018.2 hPa NNW 8.7 km/h 14.8 km/h 98% 0.0 mm
04:13 8.0 °C 8.0 °C 1018.8 hPa North 9.7 km/h 14.8 km/h 98% 0.0 mm
04:20 7.9 °C 8.0 °C 1018.8 hPa North 12.2 km/h 13.7 km/h 98% 0.0 mm
04:21 7.8 °C 8.0 °C 1018.8 hPa North 2.6 km/h 13.7 km/h 98% 0.0 mm
04:26 7.9 °C 8.0 °C 1018.8 hPa WNW 9.0 km/h 15.4 km/h 98% 0.0 mm
04:28 7.9 °C 8.0 °C 1018.8 hPa North 4.7 km/h 15.4 km/h 98% 0.0 mm
04:33 7.8 °C 8.0 °C 1018.8 hPa NNW 5.5 km/h 15.4 km/h 98% 0.0 mm
04:34 7.8 °C 8.0 °C 1018.8 hPa NNW 5.5 km/h 15.4 km/h 98% 0.0 mm
04:38 7.7 °C 8.0 °C 1018.8 hPa NNE 5.0 km/h 10.1 km/h 98% 0.0 mm
04:40 7.7 °C 8.0 °C 1018.8 hPa NW 6.1 km/h 9.3 km/h 98% 0.0 mm
04:45 7.7 °C 8.0 °C 1018.8 hPa WSW 10.5 km/h 16.3 km/h 98% 0.0 mm
04:47 7.7 °C 8.0 °C 1018.8 hPa North 10.1 km/h 16.3 km/h 98% 0.0 mm
04:52 7.7 °C 8.0 °C 1018.8 hPa NNW 14.0 km/h 16.3 km/h 98% 0.0 mm
04:53 7.7 °C 8.0 °C 1018.8 hPa NNW 5.8 km/h 16.3 km/h 98% 0.0 mm
04:58 7.7 °C 8.0 °C 1018.2 hPa North 10.1 km/h 15.8 km/h 98% 0.0 mm
05:02 7.7 °C 8.0 °C 1018.2 hPa NNW 9.7 km/h 11.9 km/h 98% 0.0 mm
05:07 7.7 °C 8.0 °C 1018.2 hPa North 10.1 km/h 12.6 km/h 98% 0.0 mm
05:08 7.7 °C 8.0 °C 1018.2 hPa North 7.6 km/h 12.6 km/h 98% 0.0 mm
05:09 7.7 °C 8.0 °C 1018.2 hPa North 5.5 km/h 12.6 km/h 98% 0.0 mm
05:14 7.7 °C 8.0 °C 1018.8 hPa NNW 6.4 km/h 12.6 km/h 98% 0.0 mm
05:19 6.8 °C 6.0 °C 1018.8 hPa NNW 9.7 km/h 15.8 km/h 97% 0.0 mm
05:24 6.8 °C 6.0 °C 1018.8 hPa NW 6.1 km/h 15.8 km/h 97% 0.0 mm
05:29 6.8 °C 6.0 °C 1018.8 hPa East 10.1 km/h 15.4 km/h 97% 0.0 mm
05:31 6.8 °C 6.0 °C 1018.8 hPa NNE 8.7 km/h 15.4 km/h 97% 0.0 mm
05:32 6.8 °C 6.0 °C 1018.8 hPa NNE 9.7 km/h 15.4 km/h 97% 0.0 mm
05:37 6.8 °C 6.0 °C 1018.8 hPa NNW 10.5 km/h 15.4 km/h 97% 0.0 mm
05:41 6.8 °C 6.0 °C 1018.8 hPa NNW 6.1 km/h 12.6 km/h 97% 0.0 mm
05:42 6.8 °C 6.0 °C 1018.8 hPa NNW 3.2 km/h 11.1 km/h 97% 0.0 mm
05:47 6.8 °C 6.0 °C 1018.8 hPa West 2.6 km/h 15.4 km/h 97% 0.0 mm
05:48 6.8 °C 6.0 °C 1018.8 hPa NNW 8.7 km/h 15.4 km/h 97% 0.0 mm
05:50 6.8 °C 6.0 °C 1018.8 hPa NNW 6.1 km/h 15.4 km/h 97% 0.0 mm
05:54 6.8 °C 6.0 °C 1018.8 hPa North 5.5 km/h 15.4 km/h 97% 0.0 mm
05:57 6.8 °C 6.0 °C 1018.8 hPa NNW 8.7 km/h 11.9 km/h 97% 0.0 mm
05:59 6.8 °C 6.0 °C 1018.8 hPa NNW 1.8 km/h 11.9 km/h 97% 0.0 mm
06:04 6.8 °C 6.0 °C 1018.8 hPa North 5.0 km/h 9.7 km/h 97% 0.0 mm
06:10 6.8 °C 6.0 °C 1018.8 hPa Calm   9.7 km/h 97% 0.0 mm
06:12 6.8 °C 6.0 °C 1018.8 hPa West 1.8 km/h 9.7 km/h 97% 0.0 mm
06:17 6.8 °C 6.0 °C 1018.8 hPa NW 5.8 km/h 9.3 km/h 97% 0.0 mm
06:23 6.8 °C 6.0 °C 1018.8 hPa North 13.7 km/h 21.6 km/h 97% 0.3 mm
06:24 6.2 °C 6.0 °C 1018.8 hPa NNW 11.6 km/h 21.6 km/h 97% 0.3 mm
06:27 6.2 °C 6.0 °C 1019.9 hPa NNE 14.0 km/h 21.6 km/h 97% 0.3 mm
06:32 6.2 °C 6.0 °C 1019.9 hPa NNW 6.4 km/h 15.4 km/h 97% 0.3 mm
06:37 6.1 °C 6.0 °C 1019.9 hPa WNW 5.8 km/h 13.0 km/h 97% 0.3 mm
06:42 6.0 °C 6.0 °C 1020.9 hPa NNE 9.0 km/h 13.7 km/h 97% 0.3 mm
06:43 6.0 °C 6.0 °C 1020.9 hPa WNW 10.1 km/h 13.7 km/h 97% 0.3 mm
06:48 6.0 °C 6.0 °C 1020.9 hPa WNW 4.0 km/h 13.7 km/h 97% 0.3 mm
06:53 5.9 °C 6.0 °C 1020.9 hPa NW 5.0 km/h 10.1 km/h 97% 0.3 mm
06:54 5.9 °C 6.0 °C 1020.9 hPa North 14.0 km/h 14.0 km/h 98% 0.3 mm
06:58 5.9 °C 6.0 °C 1020.9 hPa NW 7.9 km/h 14.0 km/h 98% 0.3 mm
07:03 5.9 °C 6.0 °C 1020.9 hPa NNW 5.0 km/h 14.0 km/h 98% 0.3 mm
07:08 5.9 °C 6.0 °C 1020.9 hPa NNW 8.7 km/h 12.6 km/h 98% 0.3 mm
07:10 5.8 °C 6.0 °C 1020.9 hPa NNW 6.1 km/h 12.6 km/h 98% 0.3 mm
07:14 5.9 °C 6.0 °C 1020.9 hPa North 10.1 km/h 17.2 km/h 98% 0.3 mm
07:17 5.9 °C 6.0 °C 1020.9 hPa NNE 5.8 km/h 17.2 km/h 98% 0.3 mm
07:22 5.9 °C 6.0 °C 1020.9 hPa NNW 8.7 km/h 17.2 km/h 98% 0.0 mm
07:27 6.1 °C 6.0 °C 1020.9 hPa NNW 9.7 km/h 16.3 km/h 98% 0.0 mm
07:29 6.2 °C 6.0 °C 1020.9 hPa NE 6.1 km/h 16.3 km/h 98% 0.0 mm
07:34 6.2 °C 6.0 °C 1020.9 hPa North 14.0 km/h 16.3 km/h 98% 0.0 mm
07:38 6.1 °C 6.0 °C 1020.9 hPa North 6.9 km/h 14.0 km/h 98% 0.0 mm
07:39 6.1 °C 6.0 °C 1020.9 hPa North 1.4 km/h 14.0 km/h 98% 0.0 mm
07:44 6.1 °C 6.0 °C 1020.9 hPa North 3.2 km/h 14.0 km/h 98% 0.0 mm
07:49 6.2 °C 6.0 °C 1020.9 hPa North 6.1 km/h 12.6 km/h 98% 0.0 mm
07:54 6.2 °C 6.0 °C 1020.9 hPa NNW 6.1 km/h 12.6 km/h 98% 0.0 mm
07:59 6.3 °C 6.0 °C 1020.9 hPa Calm   12.6 km/h 98% 0.0 mm
08:04 6.3 °C 6.0 °C 1020.9 hPa North 8.7 km/h 13.7 km/h 98% 0.0 mm
08:05 6.4 °C 6.0 °C 1020.9 hPa North 12.6 km/h 13.7 km/h 98% 0.0 mm
08:10 6.4 °C 6.0 °C 1021.9 hPa NNW 9.3 km/h 13.7 km/h 98% 0.0 mm
08:11 6.4 °C 6.0 °C 1021.9 hPa NNW 5.0 km/h 13.7 km/h 98% 0.0 mm
08:16 6.4 °C 6.0 °C 1021.9 hPa WSW 5.8 km/h 13.0 km/h 98% 0.0 mm
08:17 6.4 °C 6.0 °C 1021.9 hPa NNW 12.2 km/h 13.0 km/h 98% 0.0 mm
08:19 6.4 °C 6.0 °C 1021.9 hPa NNW 7.9 km/h 12.2 km/h 98% 0.0 mm
08:24 6.4 °C 6.0 °C 1021.9 hPa NW 10.5 km/h 15.8 km/h 98% 0.0 mm
08:25 6.4 °C 6.0 °C 1021.9 hPa North 9.0 km/h 15.8 km/h 98% 0.0 mm
08:30 6.4 °C 6.0 °C 1021.9 hPa NNE 7.6 km/h 15.8 km/h 98% 0.0 mm
08:31 6.4 °C 6.0 °C 1021.9 hPa NNW 12.2 km/h 13.7 km/h 98% 0.0 mm
08:32 6.4 °C 6.0 °C 1021.9 hPa West 3.2 km/h 13.7 km/h 98% 0.0 mm
08:37 6.4 °C 6.0 °C 1021.9 hPa North 4.3 km/h 13.7 km/h 98% 0.0 mm
08:39 6.4 °C 6.0 °C 1021.9 hPa NW 3.2 km/h 12.6 km/h 98% 0.0 mm
08:44 6.4 °C 6.0 °C 1021.9 hPa NNE 6.1 km/h 12.6 km/h 98% 0.0 mm
08:45 6.4 °C 6.0 °C 1021.9 hPa North 4.7 km/h 12.6 km/h 98% 0.0 mm
08:47 6.4 °C 6.0 °C 1021.9 hPa NW 5.5 km/h 12.6 km/h 98% 0.0 mm
08:53 6.4 °C 6.0 °C 1021.9 hPa North 6.9 km/h 13.7 km/h 98% 0.0 mm
08:54 6.4 °C 6.0 °C 1021.9 hPa North 9.0 km/h 16.3 km/h 98% 0.0 mm
09:00 6.4 °C 6.0 °C 1022.9 hPa NNE 9.7 km/h 16.3 km/h 98% 0.0 mm
09:05 6.4 °C 6.0 °C 1022.9 hPa NW 7.9 km/h 13.7 km/h 98% 0.0 mm
09:07 6.4 °C 6.0 °C 1022.9 hPa North 10.5 km/h 13.7 km/h 98% 0.0 mm
09:12 6.4 °C 6.0 °C 1022.9 hPa NW 13.0 km/h 15.8 km/h 98% 0.0 mm
09:17 6.4 °C 6.0 °C 1022.9 hPa North 8.7 km/h 16.6 km/h 98% 0.0 mm
09:18 6.4 °C 6.0 °C 1022.9 hPa NNE 7.9 km/h 16.6 km/h 98% 0.0 mm
09:23 6.4 °C 6.0 °C 1022.9 hPa North 6.1 km/h 16.6 km/h 98% 0.0 mm
09:25 6.4 °C 6.0 °C 1021.9 hPa NNW 12.2 km/h 15.8 km/h 98% 0.0 mm
09:30 6.4 °C 6.0 °C 1021.9 hPa WNW 9.7 km/h 15.8 km/h 98% 0.0 mm
09:31 6.4 °C 6.0 °C 1021.9 hPa North 9.7 km/h 13.7 km/h 98% 0.0 mm
09:36 6.4 °C 6.0 °C 1021.9 hPa NNE 8.7 km/h 14.0 km/h 98% 0.0 mm
09:39 6.4 °C 6.0 °C 1021.9 hPa NNW 10.5 km/h 14.0 km/h 98% 0.0 mm
09:44 6.4 °C 6.0 °C 1022.9 hPa NNW 10.1 km/h 14.0 km/h 98% 0.3 mm
09:45 6.4 °C 6.0 °C 1022.9 hPa NNW 7.6 km/h 14.0 km/h 98% 0.3 mm
09:50 6.4 °C 6.0 °C 1022.9 hPa NNE 1.8 km/h 13.0 km/h 98% 0.3 mm
09:54 6.4 °C 6.0 °C 1022.9 hPa NNW 8.7 km/h 13.0 km/h 98% 0.3 mm
09:59 6.4 °C 6.0 °C 1023.9 hPa North 9.3 km/h 16.3 km/h 98% 0.3 mm
10:05 6.4 °C 6.0 °C 1023.9 hPa NNW 5.0 km/h 23.3 km/h 98% 0.3 mm
10:10 6.4 °C 6.0 °C 1023.9 hPa NNW 12.6 km/h 23.3 km/h 98% 0.3 mm
10:12 6.4 °C 6.0 °C 1023.9 hPa NNW 10.8 km/h 23.3 km/h 98% 0.3 mm
10:16 6.4 °C 6.0 °C 1023.9 hPa NNW 13.0 km/h 13.7 km/h 98% 0.3 mm
10:18 6.4 °C 6.0 °C 1023.9 hPa NNW 9.0 km/h 17.7 km/h 98% 0.3 mm
10:23 7.0 °C 7.0 °C 1023.9 hPa NNW 9.0 km/h 17.7 km/h 98% 0.3 mm
10:27 7.0 °C 7.0 °C 1023.9 hPa North 9.7 km/h 17.7 km/h 98% 0.3 mm
10:28 7.0 °C 7.0 °C 1023.9 hPa NNE 7.9 km/h 16.3 km/h 98% 0.3 mm
10:33 7.5 °C 8.0 °C 1023.9 hPa North 6.9 km/h 16.9 km/h 98% 0.3 mm
10:34 7.5 °C 8.0 °C 1023.9 hPa NW 6.9 km/h 16.9 km/h 98% 0.3 mm
10:39 7.7 °C 7.0 °C 1023.9 hPa NNW 9.0 km/h 15.1 km/h 97% 0.3 mm
10:42 7.7 °C 7.0 °C 1024.9 hPa North 9.3 km/h 15.1 km/h 97% 0.0 mm
10:46 7.8 °C 7.0 °C 1024.9 hPa North 8.7 km/h 15.1 km/h 96% 0.0 mm
10:50 7.8 °C 7.0 °C 1024.9 hPa North 9.7 km/h 16.6 km/h 96% 0.0 mm
10:53 7.8 °C 7.0 °C 1024.9 hPa NNW 8.7 km/h 16.6 km/h 95% 0.0 mm
10:58 8.0 °C 8.0 °C 1024.9 hPa NNW 7.6 km/h 15.8 km/h 95% 0.0 mm
11:03 8.0 °C 7.0 °C 1024.9 hPa NE 9.7 km/h 14.0 km/h 94% 0.0 mm
11:05 8.1 °C 7.0 °C 1024.9 hPa NNE 9.7 km/h 14.0 km/h 94% 0.0 mm
11:06 8.1 °C 7.0 °C 1024.9 hPa NW 5.8 km/h 14.0 km/h 94% 0.0 mm
11:11 8.1 °C 7.0 °C 1024.9 hPa North 13.0 km/h 16.6 km/h 93% 0.0 mm
11:14 8.1 °C 7.0 °C 1024.9 hPa NNW 10.1 km/h 16.6 km/h 92% 0.0 mm
11:17 8.1 °C 7.0 °C 1024.9 hPa North 11.9 km/h 16.6 km/h 93% 0.0 mm
11:21 8.1 °C 7.0 °C 1024.9 hPa NNE 10.5 km/h 16.3 km/h 93% 0.0 mm
11:26 8.3 °C 8.0 °C 1024.9 hPa NNW 7.9 km/h 16.3 km/h 93% 0.0 mm
11:27 8.3 °C 8.0 °C 1024.9 hPa North 5.5 km/h 13.7 km/h 93% 0.0 mm
11:32 8.4 °C 7.0 °C 1024.9 hPa North 4.7 km/h 12.6 km/h 92% 0.0 mm
11:37 8.4 °C 7.0 °C 1024.9 hPa North 5.0 km/h 14.8 km/h 92% 0.0 mm
11:39 8.5 °C 8.0 °C 1024.9 hPa North 12.2 km/h 14.8 km/h 92% 0.0 mm
11:43 8.5 °C 8.0 °C 1023.9 hPa North 6.1 km/h 14.8 km/h 92% 0.0 mm
11:47 8.5 °C 8.0 °C 1023.9 hPa North 13.7 km/h 15.4 km/h 92% 0.0 mm
11:52 8.5 °C 8.0 °C 1023.9 hPa North 5.5 km/h 15.4 km/h 92% 0.0 mm
11:56 8.5 °C 8.0 °C 1023.9 hPa NNW 7.9 km/h 15.4 km/h 92% 0.0 mm
12:01 9.0 °C 8.0 °C 1023.9 hPa North 5.0 km/h 13.0 km/h 90% 0.0 mm
12:03 9.0 °C 8.0 °C 1023.9 hPa North 10.5 km/h 12.6 km/h 90% 0.0 mm
12:04 9.0 °C 8.0 °C 1023.9 hPa North 7.2 km/h 12.6 km/h 90% 0.0 mm
12:09 9.0 °C 8.0 °C 1023.9 hPa NE 10.5 km/h 14.0 km/h 89% 0.0 mm
12:14 9.0 °C 8.0 °C 1024.9 hPa North 11.1 km/h 14.3 km/h 89% 0.0 mm
12:16 9.0 °C 8.0 °C 1024.9 hPa NNW 8.7 km/h 14.3 km/h 89% 0.0 mm
12:20 9.0 °C 8.0 °C 1024.9 hPa NNE 14.8 km/h 16.9 km/h 89% 0.0 mm
12:22 9.0 °C 8.0 °C 1024.9 hPa North 9.0 km/h 16.9 km/h 89% 0.0 mm
12:27 9.0 °C 8.0 °C 1024.9 hPa NE 15.1 km/h 16.9 km/h 89% 0.0 mm
12:32 9.0 °C 8.0 °C 1024.9 hPa NNE 9.0 km/h 15.8 km/h 89% 0.0 mm
12:34 9.0 °C 8.0 °C 1024.9 hPa North 10.5 km/h 15.8 km/h 89% 0.0 mm
12:39 9.0 °C 8.0 °C 1024.9 hPa NNE 10.5 km/h 15.8 km/h 89% 0.0 mm
12:40 9.0 °C 8.0 °C 1024.9 hPa North 9.0 km/h 13.0 km/h 89% 0.0 mm
12:42 9.0 °C 8.0 °C 1024.9 hPa NNW 1.8 km/h 13.0 km/h 89% 0.0 mm
12:47 9.0 °C 8.0 °C 1024.9 hPa NNW 13.0 km/h 14.0 km/h 89% 0.0 mm
12:48 9.0 °C 8.0 °C 1024.9 hPa North 10.5 km/h 14.0 km/h 89% 0.0 mm
12:53 9.0 °C 8.0 °C 1024.9 hPa North 14.0 km/h 16.9 km/h 89% 0.0 mm
12:54 9.0 °C 8.0 °C 1024.9 hPa North 12.2 km/h 16.9 km/h 89% 0.0 mm
12:58 9.0 °C 8.0 °C 1024.9 hPa North 13.7 km/h 17.7 km/h 89% 0.0 mm
13:02 9.0 °C 8.0 °C 1024.9 hPa NNE 10.5 km/h 17.7 km/h 89% 0.0 mm
13:05 9.0 °C 8.0 °C 1024.9 hPa North 12.6 km/h 18.3 km/h 89% 0.0 mm
13:08 9.0 °C 8.0 °C 1024.9 hPa NE 12.2 km/h 18.3 km/h 89% 0.0 mm
13:13 9.0 °C 8.0 °C 1024.9 hPa NNE 11.6 km/h 18.3 km/h 89% 0.0 mm
13:15 9.0 °C 8.0 °C 1024.9 hPa NNE 12.6 km/h 18.3 km/h 89% 0.0 mm
13:16 9.0 °C 8.0 °C 1024.9 hPa North 12.2 km/h 15.8 km/h 89% 0.0 mm
13:21 9.4 °C 7.0 °C 1024.9 hPa NNW 6.1 km/h 17.7 km/h 83% 0.0 mm
13:24 9.7 °C 7.0 °C 1024.9 hPa North 8.7 km/h 17.7 km/h 83% 0.0 mm
13:27 9.7 °C 7.0 °C 1024.9 hPa North 9.0 km/h 17.7 km/h 83% 0.0 mm
13:32 9.3 °C 7.0 °C 1024.9 hPa North 10.5 km/h 14.0 km/h 83% 0.0 mm
13:34 9.5 °C 7.0 °C 1024.9 hPa North 8.7 km/h 14.0 km/h 83% 0.0 mm
13:39 9.4 °C 7.0 °C 1024.9 hPa NNE 9.7 km/h 16.3 km/h 83% 0.0 mm
13:40 9.4 °C 7.0 °C 1024.9 hPa NNE 11.9 km/h 16.3 km/h 83% 0.0 mm
13:45 9.5 °C 7.0 °C 1026.0 hPa WNW 6.9 km/h 16.3 km/h 83% 0.0 mm
13:47 9.5 °C 7.0 °C 1026.0 hPa NNW 20.9 km/h 20.9 km/h 83% 0.0 mm
13:49 9.5 °C 7.0 °C 1026.0 hPa North 15.8 km/h 20.9 km/h 83% 0.0 mm
13:54 9.5 °C 7.0 °C 1026.0 hPa North 11.1 km/h 20.9 km/h 83% 0.0 mm
13:56 9.5 °C 7.0 °C 1026.0 hPa North 5.0 km/h 20.9 km/h 81% 0.0 mm
14:01 9.5 °C 7.0 °C 1026.0 hPa NNW 12.6 km/h 18.3 km/h 81% 0.0 mm
14:02 9.5 °C 7.0 °C 1026.0 hPa North 5.8 km/h 18.3 km/h 81% 0.0 mm
14:07 9.5 °C 7.0 °C 1026.0 hPa North 15.8 km/h 21.6 km/h 81% 0.0 mm
14:08 9.5 °C 7.0 °C 1026.0 hPa NNE 9.7 km/h 21.6 km/h 81% 0.0 mm
14:13 9.1 °C 6.0 °C 1026.0 hPa NW 10.5 km/h 21.6 km/h 80% 0.0 mm
14:15 9.1 °C 6.0 °C 1026.0 hPa North 13.0 km/h 20.1 km/h 80% 0.0 mm
14:16 9.1 °C 6.0 °C 1026.0 hPa NNW 10.1 km/h 20.1 km/h 80% 0.0 mm
14:21 9.2 °C 6.0 °C 1026.0 hPa NNE 15.8 km/h 16.9 km/h 80% 0.0 mm
14:26 9.0 °C 6.0 °C 1026.0 hPa North 13.7 km/h 17.2 km/h 80% 0.0 mm
14:27 9.0 °C 6.0 °C 1026.0 hPa Calm   17.2 km/h 80% 0.0 mm
14:32 9.0 °C 6.0 °C 1026.0 hPa North 5.0 km/h 17.2 km/h 80% 0.0 mm
14:33 9.0 °C 6.0 °C 1026.0 hPa North 7.9 km/h 16.6 km/h 80% 0.0 mm
14:35 9.2 °C 6.0 °C 1026.0 hPa NNW 9.7 km/h 13.7 km/h 81% 0.0 mm
14:39 9.2 °C 6.0 °C 1026.0 hPa NNE 10.1 km/h 13.7 km/h 81% 0.0 mm
14:41 9.3 °C 7.0 °C 1026.0 hPa NNW 9.0 km/h 13.0 km/h 82% 0.0 mm
14:45 9.3 °C 7.0 °C 1026.0 hPa NNW 5.5 km/h 14.0 km/h 82% 0.0 mm
14:50 9.3 °C 7.0 °C 1026.0 hPa NNW 15.4 km/h 15.4 km/h 82% 0.0 mm
14:51 9.3 °C 7.0 °C 1026.0 hPa NNW 5.8 km/h 15.4 km/h 82% 0.0 mm
14:55 9.3 °C 7.0 °C 1026.0 hPa North 6.9 km/h 15.8 km/h 82% 0.0 mm
14:57 9.3 °C 7.0 °C 1027.0 hPa NNW 6.1 km/h 15.8 km/h 82% 0.0 mm
15:01 9.3 °C 7.0 °C 1027.0 hPa NE 10.5 km/h 15.8 km/h 82% 0.0 mm
15:06 9.3 °C 7.0 °C 1027.0 hPa North 5.8 km/h 14.3 km/h 82% 0.0 mm
15:08 9.3 °C 7.0 °C 1027.0 hPa North 7.9 km/h 14.3 km/h 82% 0.0 mm
15:13 9.3 °C 7.0 °C 1027.0 hPa North 8.7 km/h 14.0 km/h 82% 0.0 mm
15:17 9.5 °C 7.0 °C 1027.0 hPa North 9.0 km/h 14.0 km/h 82% 0.0 mm
15:19 9.5 °C 7.0 °C 1027.0 hPa NNE 9.0 km/h 13.0 km/h 82% 0.0 mm
15:24 9.5 °C 7.0 °C 1027.0 hPa North 11.6 km/h 13.0 km/h 82% 0.0 mm
15:26 9.5 °C 7.0 °C 1027.0 hPa North 14.8 km/h 14.8 km/h 82% 0.0 mm
15:31 9.5 °C 7.0 °C 1027.0 hPa North 6.4 km/h 16.9 km/h 82% 0.0 mm
15:33 9.5 °C 7.0 °C 1027.0 hPa North 5.0 km/h 16.9 km/h 82% 0.0 mm
15:35 9.5 °C 7.0 °C 1027.0 hPa North 13.0 km/h 16.9 km/h 82% 0.0 mm
15:40 9.5 °C 7.0 °C 1027.0 hPa North 6.1 km/h 14.0 km/h 82% 0.0 mm
15:45 9.5 °C 7.0 °C 1026.0 hPa NNW 10.5 km/h 14.0 km/h 82% 0.0 mm
15:50 8.7 °C 6.0 °C 1026.0 hPa NNW 8.7 km/h 14.0 km/h 82% 0.0 mm
15:52 8.7 °C 6.0 °C 1026.0 hPa North 9.0 km/h 14.0 km/h 82% 0.0 mm
15:57 8.5 °C 6.0 °C 1027.0 hPa North 4.3 km/h 10.5 km/h 82% 0.0 mm
15:58 8.4 °C 6.0 °C 1027.0 hPa NNE 5.0 km/h 10.5 km/h 82% 0.0 mm
16:02 8.4 °C 6.0 °C 1027.0 hPa NNW 7.6 km/h 9.0 km/h 83% 0.0 mm
16:07 8.2 °C 6.0 °C 1027.0 hPa North 7.9 km/h 9.3 km/h 83% 0.0 mm
16:08 8.2 °C 6.0 °C 1027.0 hPa North 2.6 km/h 9.3 km/h 83% 0.0 mm
16:13 8.0 °C 6.0 °C 1027.0 hPa NNW 5.5 km/h 9.3 km/h 84% 0.0 mm
16:14 7.9 °C 6.0 °C 1027.0 hPa WNW 4.7 km/h 9.3 km/h 84% 0.0 mm
16:19 7.8 °C 6.0 °C 1027.0 hPa Calm   8.7 km/h 85% 0.0 mm
16:20 7.8 °C 6.0 °C 1027.0 hPa NE 9.0 km/h 9.0 km/h 85% 0.0 mm
16:21 7.8 °C 6.0 °C 1027.0 hPa NNW 5.5 km/h 9.0 km/h 85% 0.0 mm
16:26 7.7 °C 6.0 °C 1027.0 hPa NNW 4.0 km/h 9.7 km/h 85% 0.0 mm
16:27 7.7 °C 6.0 °C 1027.0 hPa NNW 6.9 km/h 9.7 km/h 85% 0.0 mm
16:32 7.5 °C 6.0 °C 1027.0 hPa NNW 6.1 km/h 10.8 km/h 86% 0.0 mm
16:36 7.4 °C 5.0 °C 1027.0 hPa Calm   10.8 km/h 86% 0.0 mm
16:42 7.3 °C 5.0 °C 1027.0 hPa NNW 4.7 km/h 7.9 km/h 86% 0.0 mm
16:47 7.1 °C 5.0 °C 1027.0 hPa NNW 6.1 km/h 11.9 km/h 87% 0.0 mm
16:50 7.1 °C 5.0 °C 1027.0 hPa NNE 6.4 km/h 11.9 km/h 88% 0.0 mm
16:51 7.1 °C 5.0 °C 1027.0 hPa NNE 6.4 km/h 11.9 km/h 88% 0.0 mm
16:56 7.0 °C 5.0 °C 1028.0 hPa Calm   9.3 km/h 88% 0.0 mm
17:00 6.8 °C 5.0 °C 1028.0 hPa NNW 4.7 km/h 9.7 km/h 89% 0.0 mm
17:01 6.8 °C 5.0 °C 1028.0 hPa Calm   9.7 km/h 89% 0.0 mm
17:06 6.7 °C 5.0 °C 1028.0 hPa NNW 4.7 km/h 9.7 km/h 90% 0.0 mm
17:09 6.7 °C 5.0 °C 1028.0 hPa Calm   9.7 km/h 90% 0.0 mm
17:12 6.5 °C 5.0 °C 1028.0 hPa NNW 5.8 km/h 9.3 km/h 90% 0.0 mm
17:16 6.5 °C 5.0 °C 1028.0 hPa NW 2.6 km/h 6.9 km/h 90% 0.0 mm
17:18 6.5 °C 5.0 °C 1028.0 hPa Calm   6.4 km/h 90% 0.0 mm
17:23 6.3 °C 5.0 °C 1028.0 hPa Calm   6.1 km/h 91% 0.0 mm
17:26 6.1 °C 5.0 °C 1028.0 hPa Calm   6.1 km/h 90% 0.0 mm
17:28 6.0 °C 5.0 °C 1028.0 hPa Calm   6.1 km/h 90% 0.0 mm
17:33 5.9 °C 5.0 °C 1028.0 hPa Calm   5.0 km/h 91% 0.0 mm
17:34 5.9 °C 5.0 °C 1028.0 hPa Calm   5.0 km/h 91% 0.0 mm
17:39 5.8 °C 5.0 °C 1028.0 hPa Calm   5.0 km/h 91% 0.0 mm
17:42 5.7 °C 5.0 °C 1028.0 hPa Calm   5.0 km/h 91% 0.0 mm
17:44 5.6 °C 5.0 °C 1028.0 hPa Calm   5.0 km/h 92% 0.0 mm
17:48 5.7 °C 5.0 °C 1028.0 hPa Calm   9.3 km/h 93% 0.0 mm
17:49 5.7 °C 5.0 °C 1028.0 hPa NNW 5.5 km/h 9.3 km/h 93% 0.0 mm
17:54 5.6 °C 5.0 °C 1028.0 hPa NW 3.2 km/h 9.3 km/h 94% 0.0 mm
17:59 5.5 °C 5.0 °C 1029.0 hPa Calm   6.4 km/h 94% 0.0 mm
18:00 5.5 °C 5.0 °C 1029.0 hPa Calm   3.5 km/h 94% 0.0 mm
18:02 5.5 °C 5.0 °C 1029.0 hPa Calm   4.0 km/h 94% 0.0 mm
18:06 5.4 °C 5.0 °C 1029.0 hPa Calm   4.7 km/h 94% 0.0 mm
18:11 5.3 °C 5.0 °C 1029.0 hPa North 4.3 km/h 6.4 km/h 94% 0.0 mm
18:16 5.4 °C 5.0 °C 1029.0 hPa NNW 4.7 km/h 6.4 km/h 95% 0.0 mm
18:19 5.4 °C 5.0 °C 1029.0 hPa NNW 1.4 km/h 6.9 km/h 95% 0.0 mm
18:24 5.6 °C 6.0 °C 1029.0 hPa North 5.5 km/h 9.3 km/h 97% 0.0 mm
18:28 5.7 °C 6.0 °C 1029.0 hPa North 7.9 km/h 9.3 km/h 97% 0.0 mm
18:33 5.7 °C 6.0 °C 1029.0 hPa NNW 7.6 km/h 9.3 km/h 97% 0.0 mm
18:34 5.7 °C 6.0 °C 1029.0 hPa NNW 7.6 km/h 9.3 km/h 97% 0.0 mm
18:39 5.7 °C 6.0 °C 1029.0 hPa NE 4.0 km/h 9.3 km/h 97% 0.0 mm
18:43 5.7 °C 6.0 °C 1029.0 hPa Calm   9.3 km/h 97% 0.0 mm
18:46 5.6 °C 6.0 °C 1029.0 hPa Calm   8.7 km/h 97% 0.0 mm
18:51 5.6 °C 6.0 °C 1029.0 hPa Calm   8.7 km/h 97% 0.0 mm
18:52 5.6 °C 6.0 °C 1029.0 hPa Calm   8.7 km/h 97% 0.0 mm
18:54 5.5 °C 6.0 °C 1029.0 hPa NNW 1.8 km/h 8.7 km/h 96% 0.0 mm
18:58 5.4 °C 5.0 °C 1029.0 hPa NNW 1.8 km/h 6.9 km/h 96% 0.0 mm
19:03 5.4 °C 5.0 °C 1029.0 hPa Calm   6.9 km/h 96% 0.0 mm
19:04 5.4 °C 5.0 °C 1029.0 hPa Calm   6.9 km/h 96% 0.0 mm
19:09 5.4 °C 5.0 °C 1029.0 hPa NNW 4.7 km/h 7.9 km/h 96% 0.0 mm
19:10 5.4 °C 5.0 °C 1029.0 hPa Calm   7.9 km/h 96% 0.0 mm
19:15 5.4 °C 5.0 °C 1029.0 hPa Calm   7.9 km/h 96% 0.0 mm
19:20 5.4 °C 5.0 °C 1029.0 hPa NNW 2.1 km/h 6.4 km/h 96% 0.0 mm
19:21 5.3 °C 5.0 °C 1029.0 hPa Calm   6.4 km/h 97% 0.0 mm
19:26 5.3 °C 5.0 °C 1029.0 hPa Calm   6.4 km/h 97% 0.0 mm
19:27 5.3 °C 5.0 °C 1029.0 hPa NNW 5.5 km/h 6.4 km/h 97% 0.0 mm
19:28 5.3 °C 5.0 °C 1029.0 hPa North 4.3 km/h 6.4 km/h 97% 0.0 mm
19:33 5.3 °C 5.0 °C 1029.0 hPa WNW 1.4 km/h 9.0 km/h 97% 0.0 mm
19:36 5.3 °C 5.0 °C 1029.0 hPa NNW 2.6 km/h 9.0 km/h 97% 0.0 mm
19:41 5.3 °C 5.0 °C 1029.0 hPa WNW 10.1 km/h 10.1 km/h 97% 0.0 mm
19:46 5.4 °C 6.0 °C 1029.0 hPa North 4.3 km/h 10.5 km/h 98% 0.0 mm
19:51 5.4 °C 6.0 °C 1029.0 hPa NW 4.7 km/h 10.5 km/h 98% 0.0 mm
19:52 5.4 °C 6.0 °C 1029.0 hPa NNW 1.4 km/h 10.5 km/h 98% 0.0 mm
19:55 5.3 °C 6.0 °C 1029.0 hPa North 6.1 km/h 9.7 km/h 98% 0.0 mm
19:57 5.2 °C 5.0 °C 1030.0 hPa NNW 10.1 km/h 10.1 km/h 98% 0.0 mm
20:02 5.3 °C 6.0 °C 1030.0 hPa NNW 5.0 km/h 10.1 km/h 98% 0.0 mm
20:05 5.3 °C 6.0 °C 1030.0 hPa NW 4.0 km/h 10.1 km/h 98% 0.0 mm
20:10 5.2 °C 5.0 °C 1030.0 hPa North 4.0 km/h 9.7 km/h 98% 0.0 mm
20:11 5.2 °C 5.0 °C 1030.0 hPa North 5.0 km/h 9.7 km/h 98% 0.0 mm
20:13 5.1 °C 5.0 °C 1030.0 hPa Calm   9.0 km/h 98% 0.0 mm
20:17 5.0 °C 5.0 °C 1030.0 hPa Calm   9.0 km/h 97% 0.0 mm
20:23 4.9 °C 5.0 °C 1030.0 hPa Calm   5.8 km/h 98% 0.0 mm
20:25 4.9 °C 5.0 °C 1030.0 hPa North 2.6 km/h 5.8 km/h 98% 0.0 mm
20:30 4.8 °C 5.0 °C 1030.0 hPa Calm   6.9 km/h 98% 0.0 mm
20:32 4.8 °C 5.0 °C 1030.0 hPa NNW 1.4 km/h 6.9 km/h 98% 0.0 mm
20:37 4.8 °C 5.0 °C 1030.0 hPa Calm   6.1 km/h 98% 0.0 mm
20:38 4.8 °C 5.0 °C 1030.0 hPa Calm   4.7 km/h 98% 0.0 mm
20:41 4.8 °C 5.0 °C 1030.0 hPa NNW 2.6 km/h 5.0 km/h 98% 0.0 mm
20:44 4.8 °C 5.0 °C 1030.0 hPa Calm   5.0 km/h 98% 0.0 mm
20:49 4.8 °C 5.0 °C 1030.0 hPa North 4.3 km/h 6.9 km/h 98% 0.0 mm
20:52 4.8 °C 5.0 °C 1030.0 hPa North 4.3 km/h 6.9 km/h 98% 0.0 mm
20:55 4.8 °C 5.0 °C 1030.0 hPa North 2.6 km/h 6.9 km/h 98% 0.0 mm
20:58 4.8 °C 5.0 °C 1030.0 hPa NNW 4.7 km/h 6.9 km/h 98% 0.0 mm
21:02 4.8 °C 5.0 °C 1030.0 hPa NNW 5.5 km/h 9.0 km/h 98% 0.0 mm
21:03 4.8 °C 5.0 °C 1030.0 hPa NW 6.4 km/h 9.0 km/h 98% 0.0 mm
21:08 4.7 °C 5.0 °C 1030.0 hPa Calm   9.0 km/h 98% 0.0 mm
21:09 4.7 °C 5.0 °C 1030.0 hPa NNW 4.7 km/h 9.0 km/h 98% 0.0 mm
21:13 4.7 °C 5.0 °C 1030.0 hPa Calm   9.0 km/h 98% 0.0 mm
21:14 4.7 °C 5.0 °C 1030.0 hPa Calm   9.0 km/h 98% 0.0 mm
21:19 4.7 °C 5.0 °C 1030.0 hPa WNW 3.2 km/h 7.6 km/h 98% 0.0 mm
21:20 4.7 °C 5.0 °C 1030.0 hPa NNW 5.0 km/h 7.6 km/h 98% 0.0 mm
21:25 4.7 °C 5.0 °C 1030.0 hPa Calm   6.9 km/h 98% 0.0 mm
21:27 4.7 °C 5.0 °C 1030.0 hPa Calm   6.9 km/h 98% 0.0 mm
21:28 4.7 °C 5.0 °C 1030.0 hPa NNW 2.1 km/h 6.9 km/h 98% 0.0 mm
21:33 4.7 °C 5.0 °C 1030.0 hPa NW 4.0 km/h 6.4 km/h 98% 0.0 mm
21:34 4.7 °C 5.0 °C 1030.0 hPa WNW 4.7 km/h 6.4 km/h 98% 0.0 mm
21:39 4.7 °C 5.0 °C 1030.0 hPa NNW 3.2 km/h 6.1 km/h 98% 0.0 mm
21:41 4.7 °C 5.0 °C 1030.0 hPa WNW 9.0 km/h 9.0 km/h 98% 0.0 mm
21:46 4.7 °C 5.0 °C 1030.0 hPa WNW 5.8 km/h 9.0 km/h 98% 0.0 mm
21:47 4.7 °C 5.0 °C 1030.0 hPa NNW 4.0 km/h 9.0 km/h 98% 0.0 mm
21:52 4.8 °C 5.0 °C 1030.0 hPa NW 1.4 km/h 6.9 km/h 98% 0.0 mm
21:54 4.8 °C 5.0 °C 1030.0 hPa WNW 6.4 km/h 7.6 km/h 98% 0.0 mm
21:59 4.8 °C 5.0 °C 1031.0 hPa North 5.0 km/h 7.9 km/h 98% 0.0 mm
22:04 4.9 °C 5.0 °C 1031.0 hPa NNW 6.9 km/h 9.0 km/h 98% 0.0 mm
22:09 5.0 °C 5.0 °C 1031.0 hPa NW 5.0 km/h 9.0 km/h 98% 0.0 mm
22:11 4.9 °C 5.0 °C 1031.0 hPa Calm   11.6 km/h 98% 0.0 mm
22:14 4.9 °C 5.0 °C 1031.0 hPa NNW 4.3 km/h 11.6 km/h 98% 0.0 mm
22:16 4.9 °C 5.0 °C 1031.0 hPa Calm   11.6 km/h 98% 0.0 mm
22:20 4.8 °C 5.0 °C 1031.0 hPa Calm   6.9 km/h 98% 0.0 mm
22:23 4.8 °C 5.0 °C 1031.0 hPa Calm   6.4 km/h 98% 0.0 mm
22:28 4.7 °C 5.0 °C 1031.0 hPa Calm   6.4 km/h 98% 0.0 mm
22:33 4.7 °C 5.0 °C 1031.0 hPa Calm   4.7 km/h 98% 0.0 mm
22:38 4.6 °C 5.0 °C 1031.0 hPa NNW 4.7 km/h 5.5 km/h 98% 0.0 mm
22:41 4.6 °C 5.0 °C 1031.0 hPa NNE 2.1 km/h 6.9 km/h 98% 0.0 mm
22:46 4.6 °C 5.0 °C 1031.0 hPa WNW 4.7 km/h 6.9 km/h 98% 0.0 mm
22:51 4.6 °C 5.0 °C 1031.0 hPa NNW 4.0 km/h 7.9 km/h 98% 0.0 mm
22:53 4.6 °C 5.0 °C 1031.0 hPa WNW 4.7 km/h 7.9 km/h 98% 0.0 mm
22:58 4.7 °C 5.0 °C 1031.0 hPa North 5.5 km/h 8.7 km/h 98% 0.0 mm
23:04 4.6 °C 5.0 °C 1031.0 hPa Calm   8.7 km/h 98% 0.0 mm
23:09 4.6 °C 5.0 °C 1031.0 hPa NNW 2.6 km/h 6.9 km/h 98% 0.0 mm
23:11 4.6 °C 5.0 °C 1031.0 hPa WNW 4.3 km/h 6.9 km/h 98% 0.0 mm
23:12 4.6 °C 5.0 °C 1031.0 hPa North 2.1 km/h 6.9 km/h 98% 0.0 mm
23:17 4.6 °C 5.0 °C 1031.0 hPa Calm   6.4 km/h 98% 0.0 mm
23:20 4.5 °C 5.0 °C 1031.0 hPa WNW 4.0 km/h 5.8 km/h 98% 0.0 mm
23:26 4.5 °C 5.0 °C 1030.0 hPa Calm   6.1 km/h 98% 0.0 mm
23:28 4.5 °C 5.0 °C 1030.0 hPa Calm   6.1 km/h 98% 0.0 mm
23:31 4.5 °C 5.0 °C 1030.0 hPa Calm   6.1 km/h 98% 0.0 mm
23:35 4.4 °C 4.0 °C 1030.0 hPa Calm   5.0 km/h 98% 0.0 mm
23:40 3.7 °C 4.0 °C 1031.0 hPa Calm   5.0 km/h 98% 0.0 mm
23:41 3.7 °C 4.0 °C 1031.0 hPa Calm   5.0 km/h 98% 0.0 mm
23:46 3.2 °C 3.0 °C 1031.0 hPa Calm     98% 0.0 mm
23:49 3.0 °C 3.0 °C 1031.0 hPa Calm     97% 0.0 mm
23:54 2.7 °C 3.0 °C 1031.0 hPa Calm   4.0 km/h 97% 0.0 mm
23:57 2.6 °C 3.0 °C 1031.0 hPa Calm   4.0 km/h 97% 0.0 mm
Données Historique de Météo Turbie

Mise a jour : 24/05/2018 23:08:13
Généré par Cumulus 1.9.4 (1099)